Wind_Speed
15 9 6 3 15 19 23 28 27 28 34 43 51 44 38 48 55 65 45 63 67 67 60 59 54 53 51 42 43 47 49 47 45 45 42 42 41 43 44 46 47 48 47 47
15 8 13 16 15 19 22 24 25 24 30 35 36 32 32 38 40 42 47 47 55 54 46 33 32 33 40 41 40 44 43 44 45 43 43 41 42 42 42 45 47 47 47 47
16 16 22 21 19 19 22 22 18 18 22 27 30 30 30 28 27 40 41 47 27 26 33 31 33 41 38 39 38 40 41 42 41 41 39 38 39 42 43 46 49 49 49 50
20 22 23 23 22 22 22 18 21 25 27 27 27 25 32 31 24 27 24 17 25 32 38 40 35 34 34 33 37 38 37 39 38 37 37 39 42 45 48 50 50 50 50 51
20 22 23 23 18 18 15 22 25 28 32 35 33 32 32 29 27 29 30 28 28 33 36 31 29 28 33 35 35 39 39 39 38 39 40 41 44 46 48 48 50 51 51 52
28 28 27 23 21 20 23 24 27 28 30 37 37 37 36 28 24 25 25 27 29 32 31 28 31 33 32 32 36 38 39 42 42 44 44 45 46 47 48 50 50 52 52 52
26 29 27 27 24 24 23 25 26 28 32 32 33 34 32 27 29 29 28 28 31 34 34 34 34 36 38 39 38 40 41 42 45 45 43 44 44 45 48 51 54 53 53 55
27 29 28 29 27 26 26 27 29 30 32 32 31 36 35 31 31 32 34 34 35 36 37 38 38 37 38 38 38 39 40 42 42 43 44 44 45 47 50 51 52 54 56 56
29 30 27 28 27 28 29 30 30 31 30 30 33 35 34 33 32 33 32 31 33 36 38 40 40 39 40 40 40 39 39 42 43 45 47 49 51 52 52 53 55 55 57 61
19 25 31 30 27 29 29 29 30 32 33 33 34 34 34 30 29 29 29 28 31 34 37 40 41 42 42 40 40 42 43 45 48 50 52 55 56 56 59 60 61 63 64 66
13 14 13 21 31 32 28 30 31 31 33 33 32 33 30 28 28 27 28 28 31 34 36 38 39 40 40 40 43 46 48 50 52 54 57 58 61 64 66 66 67 68 67 66
20 19 18 16 17 23 39 33 31 33 33 33 34 37 33 32 31 32 33 33 35 38 39 40 42 44 46 47 47 49 51 55 58 60 61 61 61 62 63 64 65 67 67 67
25 24 22 16 16 15 17 18 20 21 23 26 32 36 33 33 33 34 34 33 35 36 38 39 40 40 41 44 46 50 52 54 55 56 57 58 59 61 62 64 66 67 67 68
24 31 29 19 17 18 17 18 16 16 15 15 13 16 18 22 26 30 31 32 34 36 39 41 42 43 44 45 46 48 50 52 53 55 57 57 59 61 62 64 66 67 67 67
20 18 18 19 19 18 19 19 20 20 19 19 16 17 19 23 25 25 27 29 32 35 38 42 44 46 48 49 49 51 52 54 55 55 56 58 61 63 65 66 66 66 66 64
21 18 18 18 18 19 19 20 21 21 21 20 20 17 23 26 27 28 29 31 33 35 37 39 41 43 45 46 48 50 51 53 54 56 58 61 62 64 65 66 65 63 64 63
21 19 18 17 17 18 20 19 22 23 24 24 24 24 25 27 29 31 32 33 34 35 37 38 40 43 45 47 48 49 52 54 56 58 60 61 62 61 62 61 59 59 60 61
20 19 20 18 19 22 19 20 22 24 24 25 26 26 28 29 32 33 32 33 34 35 37 39 41 44 46 48 50 51 53 55 57 57 56 54 53 54 53 53 54 57 61 64
18 18 19 20 20 22 20 21 23 23 23 23 26 28 29 30 30 31 30 31 32 35 37 39 41 42 44 47 49 50 51 53 50 47 44 44 45 45 47 52 56 60 64 67
18 17 19 19 21 23 20 21 22 21 21 24 26 27 26 25 25 27 29 31 33 35 35 36 37 38 40 40 40 39 37 34 34 35 38 41 43 48 52 57 61 65 67 63
17 17 19 19 20 21 20 21 20 19 22 23 25 25 25 25 25 25 28 30 32 32 32 33 33 33 32 30 26 25 23 25 31 35 39 43 47 52 56 59 62 60 55 55
20 19 17 17 18 20 19 20 20 20 20 20 22 23 24 25 26 26 28 30 31 32 33 31 28 26 24 20 16 16 22 25 28 35 41 44 46 50 56 58 58 56 55 59
19 18 18 19 18 18 19 20 21 20 20 21 22 24 25 25 26 28 29 31 31 31 26 25 20 21 14 12 12 19 21 28 33 33 36 43 47 52 57 58 54 53 57 47
18 18 18 18 17 18 19 20 20 21 22 21 23 25 27 28 28 28 30 32 30 27 20 19 14 10 11 10 13 17 22 24 28 33 36 42 48 53 54 52 52 51 43 28
18 18 18 18 18 17 20 22 21 20 21 23 25 25 27 29 27 27 30 28 22 20 17 9 8 7 8 10 12 16 20 24 26 29 37 45 50 52 50 49 47 37 20 18
19 18 17 18 17 19 21 19 19 20 23 25 26 26 26 23 24 26 25 20 20 16 10 7 7 7 6 9 14 17 19 22 28 36 39 45 48 50 47 46 29 17 13 7
Wind_Direction
251 250 276 195 274 240 230 222 215 214 216 219 224 230 235 242 238 234 243 233 227 224 222 218 225 225 231 233 235 241 244 248 248 250 255 256 259 260 260 261 261 261 263 266
246 233 229 222 217 238 224 224 222 209 208 215 224 232 230 236 252 246 248 217 223 226 219 224 218 225 230 236 239 239 245 250 253 255 257 258 258 261 262 264 266 267 268 269
243 207 216 219 211 212 228 216 207 210 213 214 210 205 205 218 241 237 244 215 211 217 226 235 238 238 240 242 248 251 252 254 258 259 261 263 263 263 263 263 265 268 271 271
226 216 221 214 213 208 204 215 209 197 209 216 217 216 204 205 207 230 235 236 234 229 228 231 232 243 249 255 254 260 262 262 260 262 262 261 260 261 261 262 267 269 270 271
225 219 226 228 213 215 181 198 203 204 210 218 223 224 223 221 220 227 237 242 237 233 235 239 243 252 253 255 254 255 255 257 259 258 259 258 258 263 268 272 273 272 273 274
218 220 225 228 213 207 194 201 201 209 215 222 225 231 229 224 229 229 234 236 238 245 247 246 244 244 247 249 250 254 254 253 253 254 255 259 265 267 270 272 272 271 271 271
226 231 228 230 225 221 205 205 208 212 215 226 226 229 232 220 221 224 234 230 234 241 245 247 246 247 243 246 252 256 258 257 256 258 261 263 267 268 268 268 267 268 270 272
223 231 233 235 232 232 228 217 217 218 222 227 228 230 236 239 238 237 236 239 247 247 246 248 249 247 248 252 259 263 261 261 263 265 266 267 268 267 266 268 269 268 266 266
220 224 227 231 231 230 231 233 231 228 228 233 237 239 242 244 245 250 251 246 243 245 250 253 255 255 258 262 263 261 263 265 267 270 272 271 270 268 269 271 270 270 271 271
216 232 230 230 234 233 231 232 232 232 235 238 241 243 246 244 245 247 246 247 248 248 248 249 253 256 258 259 260 262 264 265 266 267 270 272 273 273 272 270 270 269 272 277
191 213 214 230 232 233 236 240 239 239 241 246 251 255 255 257 257 256 255 252 249 249 251 256 259 261 260 259 258 261 264 266 267 268 270 272 273 273 273 273 273 275 277 279
209 198 203 215 213 224 231 238 245 245 251 255 258 259 261 263 267 267 267 262 259 261 263 265 265 264 263 263 263 264 264 265 266 268 268 268 269 271 273 275 277 278 280 282
227 223 215 221 222 213 215 225 235 240 245 251 251 256 258 261 264 267 266 263 259 257 259 260 260 260 261 261 261 260 261 263 266 267 270 273 275 278 278 278 280 282 283 282
235 234 227 221 227 227 224 221 227 237 240 243 245 251 253 256 256 255 259 263 262 257 255 257 259 262 263 264 265 266 268 270 271 274 276 278 280 280 281 283 284 285 285 285
231 228 238 231 240 237 237 238 238 236 240 244 248 253 258 258 262 265 267 265 264 262 262 261 263 266 269 271 273 274 274 276 279 282 283 283 283 284 285 285 286 286 285 287
231 224 222 227 233 237 237 238 242 245 249 251 246 245 250 258 264 265 264 264 264 265 265 266 267 270 271 272 274 277 279 281 282 283 283 283 284 285 286 286 286 287 285 285
226 233 234 234 239 242 244 248 249 249 249 253 255 254 257 261 262 263 265 267 269 270 272 272 273 273 275 277 279 281 283 284 284 284 285 285 286 286 285 286 286 286 285 284
218 228 237 240 244 247 248 249 252 253 255 259 264 266 265 264 264 265 266 268 269 271 272 273 274 276 279 281 283 283 283 283 283 284 284 284 285 285 286 286 284 284 285 284
218 228 236 238 242 249 249 251 254 255 258 263 266 267 268 267 267 266 266 266 267 268 269 271 274 277 279 281 282 283 283 284 283 285 286 285 286 287 287 288 288 288 288 287
218 223 232 236 240 247 249 252 254 257 262 261 268 273 273 269 266 268 269 269 269 270 273 276 279 281 281 284 286 285 283 285 284 285 284 287 288 292 293 293 291 291 293 295
226 229 230 235 240 247 251 252 254 256 262 271 276 276 274 272 272 272 272 273 274 278 282 284 286 286 286 285 284 284 287 287 288 290 292 294 294 295 297 297 298 300 300 298
230 234 235 239 244 250 251 250 252 256 265 274 279 277 277 276 275 275 276 278 280 283 286 285 283 283 282 284 288 287 292 297 301 304 304 303 303 304 303 304 308 309 303 301
227 231 234 239 242 247 251 254 258 264 270 279 286 278 274 274 275 277 282 287 287 287 283 285 284 286 287 284 285 295 304 309 310 312 313 314 312 310 310 313 314 307 306 304
225 230 238 240 242 243 246 251 257 262 269 282 287 280 272 272 274 280 285 287 286 286 286 290 284 277 275 275 295 306 316 325 326 328 329 325 321 318 320 321 313 311 310 302
229 231 236 241 242 246 247 251 257 265 274 281 287 286 275 272 276 283 287 287 286 290 291 267 259 284 287 289 307 317 326 332 335 335 334 334 328 328 329 321 317 317 319 313
228 231 239 248 248 246 251 260 268 276 281 287 293 290 281 279 285 289 290 284 287 279 268 218 255 273 286 310 315 324 335 338 340 339 337 338 337 338 334 329 335 342 347 19
Height
5697 5696 5697 5694 5701 5701 5703 5704 5706 5714 5723 5730 5737 5744 5750 5752 5758 5764 5771 5776 5782 5787 5793 5792 5801 5808 5813 5816 5820 5822 5824 5824 5827 5828 5828 5830 5830 5829 5829 5828 5828 5827 5827 5827
5695 5696 5695 5694 5694 5700 5700 5703 5708 5712 5718 5725 5731 5740 5746 5749 5754 5759 5765 5770 5776 5781 5784 5787 5792 5800 5806 5809 5811 5813 5814 5815 5816 5818 5818 5819 5820 5819 5818 5817 5816 5816 5817 5818
5692 5692 5690 5691 5691 5694 5700 5702 5707 5714 5716 5720 5726 5732 5741 5745 5748 5754 5761 5764 5767 5773 5777 5783 5787 5791 5796 5798 5801 5803 5804 5804 5805 5807 5807 5808 5809 5807 5807 5806 5805 5807 5808 5807
5685 5687 5687 5687 5690 5691 5693 5703 5707 5710 5714 5718 5721 5729 5734 5739 5743 5748 5753 5756 5763 5768 5771 5774 5779 5784 5788 5791 5792 5792 5793 5793 5793 5794 5796 5797 5796 5795 5795 5795 5796 5796 5795 5794
5682 5683 5684 5686 5689 5691 5696 5697 5702 5707 5711 5715 5719 5724 5729 5732 5736 5743 5749 5755 5758 5763 5764 5769 5772 5776 5779 5781 5782 5783 5784 5784 5784 5785 5784 5783 5783 5783 5784 5785 5784 5784 5784 5782
5671 5675 5679 5682 5685 5688 5692 5694 5698 5703 5708 5709 5714 5719 5724 5729 5735 5741 5745 5748 5752 5756 5761 5764 5766 5768 5770 5771 5772 5772 5773 5773 5772 5772 5772 5774 5776 5775 5776 5774 5773 5771 5770 5769
5666 5670 5674 5676 5682 5684 5689 5692 5695 5699 5701 5705 5711 5715 5719 5725 5729 5735 5738 5743 5747 5749 5752 5755 5758 5759 5761 5763 5763 5763 5763 5762 5763 5764 5766 5766 5766 5765 5764 5762 5761 5760 5759 5759
5660 5664 5668 5672 5678 5682 5685 5688 5691 5694 5697 5702 5705 5708 5712 5717 5722 5728 5734 5736 5739 5742 5744 5746 5748 5749 5751 5753 5752 5752 5752 5753 5753 5754 5754 5754 5753 5753 5753 5752 5751 5749 5748 5748
5654 5657 5662 5666 5671 5676 5679 5682 5687 5690 5693 5697 5700 5702 5706 5710 5715 5719 5721 5726 5728 5730 5732 5734 5736 5738 5740 5741 5741 5741 5742 5743 5743 5743 5742 5742 5741 5741 5740 5739 5738 5737 5735 5733
5650 5653 5656 5660 5665 5668 5672 5677 5681 5683 5687 5690 5692 5695 5697 5702 5706 5710 5714 5717 5718 5719 5722 5724 5725 5727 5729 5730 5730 5731 5731 5732 5732 5731 5730 5728 5728 5727 5725 5724 5722 5721 5718 5716
5645 5650 5653 5654 5657 5662 5666 5669 5674 5677 5680 5682 5687 5688 5692 5696 5699 5702 5704 5706 5708 5711 5713 5713 5714 5716 5718 5721 5722 5722 5721 5719 5718 5718 5717 5716 5715 5714 5712 5711 5708 5704 5701 5699
5643 5645 5647 5650 5651 5654 5659 5663 5667 5669 5673 5677 5680 5682 5684 5686 5689 5693 5695 5698 5699 5700 5700 5702 5703 5704 5706 5707 5706 5707 5707 5708 5707 5707 5706 5704 5702 5700 5698 5694 5690 5687 5685 5681
5640 5642 5644 5647 5649 5650 5653 5658 5661 5663 5666 5669 5672 5675 5678 5681 5682 5684 5685 5687 5689 5691 5691 5692 5693 5694 5696 5697 5697 5697 5697 5696 5696 5694 5692 5690 5687 5684 5681 5678 5674 5671 5666 5662
5632 5634 5637 5642 5645 5647 5649 5653 5655 5658 5661 5663 5667 5669 5671 5672 5673 5675 5677 5679 5681 5682 5682 5683 5684 5685 5686 5687 5686 5686 5684 5682 5681 5679 5677 5675 5672 5669 5665 5661 5656 5651 5647 5643
5628 5630 5634 5637 5640 5643 5645 5648 5651 5653 5655 5658 5662 5663 5664 5665 5666 5668 5669 5670 5671 5671 5672 5673 5673 5673 5673 5673 5672 5671 5670 5668 5667 5666 5663 5660 5656 5652 5648 5643 5638 5633 5628 5624
5623 5627 5629 5633 5636 5638 5640 5643 5646 5648 5650 5653 5656 5659 5657 5657 5659 5660 5661 5662 5662 5663 5663 5663 5664 5664 5663 5661 5660 5659 5658 5657 5655 5652 5648 5644 5640 5635 5629 5624 5619 5615 5610 5606
5618 5620 5623 5626 5629 5632 5636 5638 5640 5643 5645 5647 5649 5651 5652 5651 5651 5651 5651 5651 5652 5652 5653 5653 5652 5651 5650 5649 5649 5649 5646 5643 5640 5637 5632 5627 5623 5618 5613 5608 5604 5598 5594 5589
5612 5615 5618 5622 5624 5627 5632 5633 5634 5636 5638 5640 5641 5643 5644 5643 5643 5643 5643 5643 5643 5642 5642 5642 5641 5640 5639 5638 5638 5636 5632 5629 5625 5622 5618 5613 5609 5604 5599 5594 5588 5582 5576 5570
5608 5611 5615 5618 5620 5622 5625 5627 5628 5630 5633 5633 5633 5634 5635 5636 5635 5635 5635 5635 5634 5634 5633 5632 5632 5631 5630 5627 5625 5622 5618 5615 5612 5609 5605 5601 5597 5592 5586 5579 5572 5564 5557 5550
5604 5607 5611 5613 5615 5615 5619 5620 5622 5624 5626 5625 5625 5626 5627 5627 5628 5627 5626 5625 5624 5623 5623 5622 5621 5620 5618 5616 5614 5611 5608 5606 5603 5600 5596 5591 5585 5578 5571 5564 5556 5546 5537 5528
5598 5601 5604 5606 5609 5611 5613 5614 5617 5620 5622 5618 5618 5618 5618 5618 5619 5618 5617 5616 5614 5614 5613 5612 5611 5610 5608 5607 5606 5603 5601 5598 5595 5591 5585 5579 5573 5564 5555 5546 5535 5525 5516 5507
5593 5596 5599 5602 5605 5607 5607 5609 5612 5612 5612 5612 5612 5611 5611 5610 5609 5609 5609 5608 5607 5606 5604 5602 5602 5601 5599 5599 5598 5597 5594 5591 5587 5581 5575 5568 5559 5549 5538 5526 5514 5504 5494 5485
5588 5591 5594 5597 5600 5600 5601 5603 5603 5605 5606 5606 5606 5606 5604 5603 5602 5601 5600 5599 5597 5596 5595 5594 5593 5592 5592 5592 5592 5590 5588 5584 5579 5573 5565 5556 5545 5534 5521 5510 5499 5486 5476 5467
5583 5586 5588 5591 5594 5595 5596 5597 5598 5598 5599 5600 5600 5598 5597 5596 5595 5594 5592 5590 5588 5587 5586 5586 5586 5586 5587 5587 5587 5586 5583 5578 5572 5565 5556 5546 5535 5522 5509 5495 5482 5469 5460 5453
5579 5581 5583 5586 5587 5590 5591 5591 5592 5593 5593 5593 5592 5591 5590 5589 5588 5586 5583 5581 5580 5579 5579 5580 5581 5582 5583 5583 5582 5580 5577 5572 5565 5558 5549 5538 5524 5511 5497 5481 5468 5457 5452 5448
5573 5576 5579 5580 5582 5583 5584 5585 5586 5587 5586 5586 5585 5584 5583 5582 5580 5577 5575 5574 5574 5574 5575 5576 5578 5578 5579 5579 5577 5575 5571 5566 5561 5553 5542 5530 5516 5502 5486 5471 5459 5454 5451 5448